Погода в Кургане

Погода в Кургане : погода сейчас, прогноз погоды и архив. Всё, что Вы хотите узнать о погоде в Кургане!

Хотите узнать прогноз погоды в Кургане? Тогда Вам сюда: Погода в Кургане

Поиск расширенной информации на нашем сайте:

Другие новости

Новости СМИ2

Главная страница сайта

Новости сайта

02.10.2013

Напоминаем, что на нашем новом сайте вы можете получить высокодетализированные прогнозы погоды по пунктам России, СНГ и мира (включающие важные для авиации метеовеличины, такие как направление и скорость ветра, видимость, явления погоды, количество и форма облачности, нижняя и верхняя граница облачности), а также ознакомиться с разнообразными материалами по авиационной метеорологии и подборкой полезных ссылок на эту тему.

Сайт Метеоцентр.Азия посвящён разработке технологий оптимизации авиаметеорологического обслуживания, включая проектирование и перспективное создание нескольких автоматизированных авиаметеорологических систем:
- система выпуска высокодетальных прогностических карт явлений погоды для нижнего воздушного пространства по России и ближнему зарубежью;
- система верификации прогнозов TAF (выпускаемых синоптиками официальных АМСГ РФ и ближнего зарубежья) и AUTOTAF (выпускаемых сайтом Метеоцентр.Азия) - выявление ошибок, онлайн-сопоставление с фактической погодой METAR, автоматическое внесение коррективов в прогнозы при резком отклонении фактической погоды от прогноза, подсчёт оправдываемости прогнозов по элементам и в целом;
- система обработки, анализа и отображения авиаметеорологической информации для применения провайдерами метеорологической информации.


Погода в Кургане - сегодня

Время (UTC), дата Ветер
(°,м/с) 
Видим.   Явления Облачность Т
(°С)
Тd
(°С)
f(%) Тe
(°С)
Pmin
(гПа)
dP
(гПа)
Po
(мм)
O2
(г/м3)
Тmin Tmax R s Состояние
почвы
21 28.05.16 330 (СЗ) 10 км    10/0 средняя, верхняя 
[Ac trans|Ci fib]
+8 +6 87 +9  1020  0.4  758  296           
00 29.05.16 330 (СЗ) 20000 м    10/0 верхняя 
[Ci fib]
+6.7 +5.5 92 +8  1021.4  1.3  759  298           
03 29.05.16 080 (В) 20000 м    10/4 1000 м средняя, верхняя 
[Sc|Ac trans|Ci fib]
+12.7 +6.1 64 +14  1021.5  0.2  759  291  +6.4        сухая 
06 29.05.16 360 (С) 20000 м    10/8 1000 м кучево-дожд., средняя, верхняя 
[Cb cap|Ac trans|Ci fib]
+14.7 +4.4 50 +15  1020.5  -0.8  759  289           
09 29.05.16 320 (СЗ) 20000 м    8/6 600 м кучево-дожд., верхняя 
[Cb cap|Ci fib]
+16.9 +4 42 +17  1018.5  -1.9  757  287           
12 29.05.16 270 (З) 20000 м    8/5 600 м верхняя 
[Sc diur, vesp|Ci fib]
+19.4 +3.3 34 +20  1016.3  -2.2  756  284           
15 29.05.16 270 (З) 20000 м    8/3 1000 м средняя, верхняя 
[Sc diur, vesp|Ac trans|Ci fib]
+18.1 +3.5 38 +19  1014.3  -2  754  284    +19.6       
18 29.05.16 180 (Ю) 10 км    3/0 верхняя 
[Ci fib]
+13.2 +6.8 65 +14  1012.7  -1.7  753  288           
21 29.05.16 190 (Ю) 10 км    ясно 
+12.2 +7.4 72 +13  1010.4  -2.3  751  288           
00 30.05.16 200 (Ю) 20000 м    8/0 верхняя 
[Ci fib]
+11.3 +8.6 83 +12  1007.4  -3  749  288           
03 30.05.16 250 (З) 20000 м    10/0 средняя, верхняя 
[Ac trans|Ci fib]
+17.4 +8.2 55 +18  1004.9  -2.3  747  282  +11        сухая 
06 30.05.16 340 (С) 20000 м    10/3 1000 м кучево-дожд., средняя 
[Cb cap|Ac und]
+14.6 +7.6 63 +14  1005.1  0.2  747  285           
09 30.05.16 330 (СЗ) 20000 м  {ливн. осадки}  10/3 1000 м средняя, верхняя 
[Cu hum|Ac trans|Ci]
+15.4 +3.5 45 +15  1005.7  0.2  748  285           
18 30.05.16 320 (СЗ) 10 км    ясно 
+5.3 -2 59 +6  1011.7  1.6  752  297           
21 30.05.16 тихо ()   10 км    3/0 средняя 
[Ac trans]
+1.5 -1.6 80 +2  1012.7  0.8  753  302           
00 31.05.16 тихо ()   20000 м    3/0 средняя 
[Ac trans]
+1.5 -1.4 81 +2  1013.6  0.9  753  302           
03 31.05.16 280 (З) 20000 м    10/3 600 м кучево-дожд., средняя, верхняя 
[Cb cap|Ac trans|Ci]
+7.8 +0.6 60 +8  1014  0.6  754  295  +0.7        сухая 
06 31.05.16 290 (З) 20000 м    8/4 1000 м кучево-дожд., средняя, верхняя 
[Cb cap|Ac trans|Ci fib]
+9.5 -0.8 49 +9  1014.1  0.1  754  294           
09 31.05.16 310 (СЗ) 20000 м    10/5 1000 м кучево-дожд., средняя 
[Cb cap|Ac und]
+9.9 -2.7 41 +9  1014.8  0.7  754  294           
12 31.05.16 310 (СЗ) 20000 м    10/5 1000 м кучево-дожд., средняя, верхняя 
[Cb cap|Ac trans|Ci fib]
+9.9 -3 40 +9  1015.9  1.1  755  294           
15 31.05.16 320 (СЗ) 20000 м    8/4 1000 м кучево-дожд., средняя 
[Cb cap|Ac trans]
+8.8 -2.6 45 +8  1016.9  0.9  756  295    +10.3       
18 31.05.16 290 (З) 10 км    3/0 средняя 
[Ac trans]
+5.6 -1.8 59 +5  1018  757  299           
21 31.05.16 290 (З) 10 км    8/0 средняя 
[Ac trans]
+5 -1.2 64 +5  1018.5  0.5  757  300           
00 01.06.16 270 (З) 20000 м    3/0 средняя 
[Ac trans]
+3.6 -1.1 71 +3  1019.1  0.5  757  301           
03 01.06.16 320 (СЗ) 20000 м    3/0 средняя 
[Ac trans]
+9.3 +0.9 56 +9  1019.2  0.3  758  295  +3.2        сухая 
Время (UTC), дата Ветер
(°,м/с) 
Видим.   Явления Облачность Т
(°С)
Тd
(°С)
f(%) Тe
(°С)
Pmin
(гПа)
dP
(гПа)
Po
(мм)
O2
(г/м3)
Тmin Tmax R s Состояние
почвы

Для получения пояснительной информации подведите курсор к названию столбца.

ПОГОДА в Кургане - архив

Всё, что Вы хотите узнать о погоде в Кургане - удобно и подробно!

Выберите нужную дату (начиная с 1 января 2015* года) и нажмите кнопку "Найти".
Будут отображены архивные сводки погоды по пункту Курган, начиная с указанной даты.


Отображать данные в формате CSV (для использования в таблицах Excel)


Внимание! Наш архив погоды предназначен исключительно для личного некоммерческого использования в познавательных целях. Если Вам необходимы официальные справки о состоянии погоды (для производственных, юридических, коммерческих и т.п. целей), обращайтесь в органы Росгидромета.

*Примечание: данная дата относится к архиву по метеостанциям СССР (Россия, СНГ, Балтия).
Архив по метеостанциям Зарубежной Европы и Азии (кроме Китая) хранится 10 дней, по другим регионам земного шара (Китай, Африка, Америка, Австралия, Океания) - 1 день.

Курган - район местоположения метеостанции


Название, широта, долгота, высота метеостанции:
Курган 55.5°ш. 65.4°д. 74 м над ур. моря [Российская Федерация]

Дополнительная информация

В oтличие oт бoльшинства пoгoдных сайтoв мы публикуем пoдрoбную метеoинфoрмацию в детальнoм прoфессиoнальнoм фoрмате.

Характеристики температуры и влажнoсти вoздуха измеряются на высoте 2 м в тени вдали oт зданий и деревьев.
Скoрoсть ветра измеряется на высoте 10 м (на урoвне рoста челoвека скoрoсть ветра ниже в 1.5-2 раза). Если метеoстанция нахoдится в гoрoде или в лесу, тo скoрoсть ветра занижена на 2-4 м/с пo сравнению с oткрытым местoм. Скoрoсть ветра над акватoриями крупных рек и oзёр, а также на вершинах хoлмoв на 2-5 м/с выше, чем в oбычных услoвиях.
Атмoсфернoе давление в разных тoчках местнoсти мoжет значительнo oтличаться oт давления на метеoстанции, в зависимoсти oт услoвий рельефа (при пoдъёме на 10 м давление пoнижается примернo на 1 мм рт.ст.).